THORAD AGENA D DEB

Satellite information

Favourite Embed

Satellite Type and Status

DEBRISIN ORBIT

Key statistics

Satellite THORAD AGENA D DEB at a glance.

Uptime

20291

Days in orbit

Revolutions

≈ 14.0

Per day

Orbit

SSO

Sun Synchronous Orbit

Inclination

100.1

Latest

Satellite identification and parameters

Extended collection of information and parameters for THORAD AGENA D DEB.

Object identification

Identified? True

Debris? True

Object name: THORAD AGENA D DEB

International designator: 1970-025DW

Object number (NORAD): 4776

Object ID (CCSDS): 4776

Country: UNITED STATES OF AMERICA (US)

Current information (Y/N): Y

RCS size: SMALL

Orbital parameters

Period: 102.782 minutes

Inclination: 100.1219 deg

SMA: 7268.395 km

Apoapsis: 902.864 km

Periapsis: 877.655 km

RAAN: 224.5301 deg

Eccentricy: 0.00173421

Argument of periapsis: 289.1763 deg

Mean anomaly: 98.2885 deg

Mean motion: 14.01022203 rev/day

Mean motion (dot): 0.00003406 rev/day2

B* drag term: 0.0023046294 1/REarth

Two-line elements (TLE)

Creation date: Oct. 27, 2025, 2:46 a.m.

Reference frame: TEME

Reference center: EARTH

Epoch: Oct. 26, 2025, 6:24 p.m. UTC

TLE line 0: 0 THORAD AGENA D DEB

TLE line 1: 1 04776U 70025DW 25299.76716772 .00003406 00000-0 23046-2 0 9998

TLE line 2: 2 04776 100.1219 224.5301 0017342 289.1763 98.2885 14.01022203704815

Live tracking on map

Real-time ground track for satellite THORAD AGENA D DEB.

In-orbit conjunctions

A list of the most updated potential collisions computed for object THORAD AGENA D DEB.

Target Orbit TCA Probability of collision Miss distance Type
COSMOS 1266 LEO 2025-07-15 09:35:43 0.001075971 507.0 (m) PAYLOAD
METEOR 1-12 LEO 2025-02-17 16:16:41 0.0001713096 402.0 (m) PAYLOAD

Associated space launch

Meteorological research and development satellite

THORAD AGENA D DEB was lifted into orbit during the mission ‘Thorad SLV-2G Agena D | Nimbus 4’, on board a Thorad SLV-2G Agena D space rocket.

The launch took place on April 8, 1970, 8:17 a.m. from Space Launch Complex 2E.

For more information about the launch, click the button.

Launch to space Thorad SLV-2G Agena D | Nimbus 4
Thorad SLV-2G Agena D | Nimbus 4

Agency: N/A

Status: Launch Successful

Launch date: April 8, 1970, 8:17 a.m. UTC

Rocket: Thorad SLV-2G Agena D

Launch pad: Space Launch Complex 2E

Location: Vandenberg SFB, CA, USA

...

Latest news about this satellite

There are no fresh news available about this satellite. Check back as we update our databases every day.


Newsletter sign-up

Weekly statistics, charts and insights to help you stay on top of the space industry.